{"data":{"norad_id":59530,"intl_designator":"2024-073V","name":"STARLINK-31392","alt_names":[],"object_type":"PAYLOAD","status":"ACTIVE","operator":null,"country":"US","launch_date":"2024-04-17","launch_site_code":"AFETR","launch_vehicle":null,"mission":null,"orbit_class":"UNKNOWN","rcs_meters":null,"size_class":null,"mass_kg":null,"dimensions":null,"purposes":["comms"],"wikipedia_slug":null,"has_3d_model":false,"image_url":null,"decayed_at":null,"tle_current":{"epoch":"2026-09-21T02:53:15.139968Z","epoch_age_seconds":114638,"freshness":"FRESH","line1":"1 59530U 24073V   26264.12031412 -.00000154  00000+0  39118-5 0  9999","line2":"2 59530  42.9991 294.3715 0001301 280.4545  79.6160 15.27555172136067","mean_motion":15.27555172,"eccentricity":0.0001301,"inclination_deg":42.9991,"raan_deg":294.3715,"arg_perigee_deg":280.4545,"mean_anomaly_deg":79.616,"bstar":3.9118e-6,"rev_number":13606,"period_min":94.268280870971,"perigee_km":482.23079102706,"apogee_km":484.01609099381,"semimajor_km":6861.2604410104,"source":"CELESTRAK","updated_at":"2026-09-22T09:00:48.966590Z"}}}